Volver al catálogo

DELTA 1 DEB

ActivoSSO
NORAD 14465·DEBRIS·🇺🇸 United States

Lanzado Mar 5, 1978 desde Vandenberg Space Force Base

Loading…

Próximos Pases (próximas 24 horas)

TLE

ActualizadoSource: Space-Track

Época: Sep 14, 2026, 09:04 UTC

1 14465U 78026GF  26257.37843534  .00001373  00000-0  65771-3 0  9995
2 14465  98.7801  54.7466 0103337 340.0312  48.9404 14.17902245231502

Sigue DELTA 1 DEB en tiempo real con AllMySat

Download on the App Store